Location: Tucson
(32.2217°N, 110.9265°W)
Time: 12:34:52
(UTC-07:00)

OTV 5 (USA 277) - Visible Passes

Search period start: 21 September 2017 00:00
Search period end: 01 October 2017 00:00
Orbit: 404 x 417 km, 43.0° (Epoch: 07 September)

Date Brightness Start Highest point End Pass type
(mag) Time Alt. Az. Time Alt. Az. Time Alt. Az.
21 Sep ? 04:49:27 19° NNW 04:49:47 19° NNW 04:52:17 10° NNE visible
22 Sep ? 04:00:50 13° NNE 04:00:50 13° NNE 04:01:24 10° NE visible
22 Sep ? 05:35:05 10° NNW 05:36:39 13° N 05:38:12 10° NNE visible
23 Sep ? 04:44:57 14° NNW 04:45:21 14° N 04:47:10 10° NNE visible
24 Sep ? 05:30:39 10° NNW 05:32:18 13° N 05:33:57 10° NE visible
25 Sep ? 04:40:25 12° N 04:41:00 13° N 04:42:31 10° NNE visible
26 Sep ? 05:25:36 10° NNW 05:27:54 17° NNE 05:30:12 10° ENE visible
27 Sep ? 04:36:02 14° N 04:36:38 15° N 04:38:36 10° NE visible
28 Sep ? 05:20:25 10° NW 05:23:22 30° NNE 05:26:18 10° E visible
29 Sep ? 04:31:56 22° NNE 04:32:11 22° NNE 04:34:50 10° ENE visible
30 Sep ? 05:16:25 19° NW 05:18:39 74° NNE 05:21:55 10° ESE visible
